Regional Weather Roundup
Issued by NWS

Home | Current Version | Previous Version | Graphics & Text | Print | Product List | Glossary On
Versions: 1 2 3 4 5 6 7 8 9 10 11 12 13 14 15 16 17 18 19 20 21 22 23 24 25 26 27 28 29 30 31 32 33 34 35 36 37 38 39 40 41 42 43 44 45 46 47 48 49 50
000
ASUS43 KMPX 230610
RWRMN
WEATHER ROUNDUP FOR MINNESOTA
NATIONAL WEATHER SERVICE TWIN CITIES/CHANHASSEN MN
100 AM CDT SUN JUL 23 2017


NOTE: "FAIR" INDICATES FEW OR NO CLOUDS BELOW 12,000 FEET WITH NO
SIGNIFICANT WEATHER AND/OR OBSTRUCTIONS TO VISIBILITY. N/A MEANS
CURRENT SKY AND/OR WEATHER CONDITIONS ARE NOT AVAILABLE.

MNZ060>063-068>070-230700-
   Twin Cities Metro

CITY           SKY/WX    TMP DP  RH WIND       PRES   REMARKS
TWIN CITIES    PTCLDY    72  61  68 NW6       29.84S
6HR MIN TEMP:  72; 6HR MAX TEMP:  88;

ST PAUL        PTCLDY    71  65  81 CALM      29.84S
CRYSTAL        PTCLDY    70  60  70 NW3       29.84R
BLAINE         CLEAR     68  63  83 CALM      29.84F
LAKEVILLE      CLEAR     63  63 100 CALM      29.85S
EDEN PRAIRIE   PTCLDY    73  62  68 NW3       29.84S
6HR MIN TEMP:  72; 6HR MAX TEMP:  88;

SOUTH ST PAUL  CLEAR     71  63  75 CALM      29.84S
LAKE ELMO      FAIR      66  64  94 CALM      29.85S
$$
MNZ001>005-007-008-013>017-022>024-027-028-230700-
   Northwest Minnesota

CITY           SKY/WX    TMP DP  RH WIND       PRES   REMARKS
BEMIDJI        MOCLDY    61  57  87 W6        29.88S
HALLOCK        CLOUDY    63  61  94 NW8       29.90R
ROSEAU         CLOUDY    61  55  82 W3        29.88R
WARROAD        CLOUDY    59  55  88 W6        29.87R
THIEF RVR FALL CLOUDY    61  61 100 NW9       29.91R
CROOKSTON      MOCLDY    63  61  94 NW10      29.91R
FOSSTON        PTCLDY    57  57 100 NW7       29.90S
DETROIT LAKES  CLEAR     61  57  88 NW6       29.92F
MOORHEAD       PTCLDY    61  57  88 NW5       29.92S
PARK RAPIDS    CLEAR     60  56  86 NW5       29.89S
MAHNOMEN       MOCLDY    58  57  96 W6        29.90S
$$
MNZ006-009>011-018-025>026-230700-
   North Central Minnesota

CITY           SKY/WX    TMP DP  RH WIND       PRES   REMARKS
BAUDETTE       CLEAR     60  59  96 N3        29.84R
FLAG ISLAND    CLEAR     63  61  94 NE8       29.84S
INTL FALLS     CLEAR     56  56 100 CALM      29.83R FOG
6HR MIN TEMP:  58; 6HR MAX TEMP:  74; 6HR PCP:  0.02;

WASKISH        CLEAR     63  59  88 W10G17    29.85S
BIG FORK       CLEAR     59  55  88 CALM      29.85S
LONGVILLE      CLEAR     63  55  77 W5        29.87R
GRAND RAPIDS   CLEAR     64  57  78 NW10      29.87R
CRANE LAKE     CLOUDY    57  57 100 CALM      29.84S
ORR            LGT RAIN  61  57  88 CALM      29.82R
COOK           DRIZZLE   61  59  94 CALM      29.83F
WALKER         FAIR      59  55  88 W3        29.88S
$$
MNZ012-019>021-037-230700-
   Northeast Minnesota

CITY           SKY/WX    TMP DP  RH WIND       PRES   REMARKS
DULUTH         CLOUDY    54  54 100 E3        29.85R
6HR MIN TEMP:  54; 6HR MAX TEMP:  64;

ELY            LGT RAIN  61  61 100 SE7       29.82F
HIBBING        PTCLDY    60  57  89 W8        29.84R
EVELETH        CLOUDY    63  59  87 W5        29.85S
DULUTH HARBOR  CLOUDY    57  55  94 NE7       29.85S
TWO HARBORS    CLOUDY    57  52  82 CALM      29.84R
SILVER BAY     CLOUDY    55  54  94 CALM      29.84S
GRAND MARAIS     N/A     56  54  93 CALM      29.83F
G MARAIS ARPRT CLOUDY    54  50  87 NE3       29.86F
$$
MNZ029>031-032-039>041-046>048-054>057-064-230700-
   West Central Minnesota

CITY           SKY/WX    TMP DP  RH WIND       PRES   REMARKS
FERGUS FALLS   CLEAR     64  57  77 N5        29.91S
WHEATON        PTCLDY    66  59  77 NW3       29.94S
MORRIS         PTCLDY    66  61  82 N6        29.91R
ALEXANDRIA     PTCLDY    68  59  73 N9        29.92S
ELBOW LAKE     FAIR      67  59  75 N7        29.92S
WADENA         CLEAR     63  55  77 NW5       29.90S
GLENWOOD       PTCLDY    70  61  73 NW8       29.91S
APPLETON       CLOUDY    70  61  73 N7        29.90R
BENSON         CLOUDY    70  61  73 N5        29.91S
ORTONVILLE     CLEAR     70  59  68 N12       29.92R
MADISON        CLEAR     73  63  68 N12       29.91R
WILLMAR        MOCLDY    70  64  83 CALM      29.90S
$$
MNZ033>034-036-042>043-049>051-058-059-230700-
   Central Minnesota

CITY           SKY/WX    TMP DP  RH WIND       PRES   REMARKS
ST CLOUD       MOCLDY    67  62  84 NW6       29.86F
6HR MIN TEMP:  65; 6HR MAX TEMP:  83;

SAUK CENTRE    CLOUDY    67  62  82 CALM      29.90S
PAYNESVILLE    CLOUDY    67  62  84 CALM      29.89S
AITKIN         CLEAR     61  55  82 W3        29.85R
PINE RIVER     CLEAR     64  57  77 W3        29.91S
BRAINERD       CLEAR     68  55  63 NW5       29.87S
STAPLES        CLEAR     63  54  72 NW6       29.89S
LONG PRAIRIE   FAIR      64  57  77 W5        29.91S
LITTLE FALLS   PTCLDY    63  55  77 CALM      29.88S
LITCHFIELD     MOCLDY    73  63  68 NW5       29.88S
BUFFALO        MOCLDY    68  62  80 CALM      29.87S
MAPLE LAKE     PTCLDY    65  62  91 CALM      29.87F
HUTCHINSON     CLEAR     67  65  96 NW3       29.88R
$$
MNZ037-044-045-052-053-230700-
   East Central Minnesota

CITY           SKY/WX    TMP DP  RH WIND       PRES   REMARKS
PRINCETON      MOCLDY    66  59  77 NW3       29.85F
MORA           CLOUDY    64  55  72 NW6       29.87S
CAMBRIDGE      PTCLDY    70  55  60 NW3       29.83F
RUSH CITY      MOCLDY    65  59  81 CALM      29.84F
MOOSE LAKE     MOCLDY    59  57  94 CALM      29.83R
HINCKLEY       CLOUDY    68  57  68 W5        29.84S
CLOQUET        FOG       55  54  94 CALM      29.85R VSB 1/4
MCGREGOR       PTCLDY    64  55  72 NW3       29.86R
$$
MNZ071>073-080-081-089-090-097-098-230700-
   Southwest Minnesota

CITY           SKY/WX    TMP DP  RH WIND       PRES   REMARKS
MONTEVIDEO     CLEAR     66  63  88 NE7       29.89S
GRANITE FALLS  CLEAR     71  66  84 N9        29.89R
CANBY          CLEAR     69  62  79 CALM      29.92R
MARSHALL       CLEAR     72  63  73 W13       29.88S
REDWOOD FALLS  CLEAR     72  66  81 SW6       29.86R
OLIVIA         CLEAR     70  64  83 NW6       29.88R
PIPESTONE      CLEAR     72  63  73 N8        29.94R
WINDOM         CLEAR     68  63  83 CALM      29.90S
WORTHINGTON    CLEAR     67  62  84 W7        29.92S
JACKSON        CLEAR     68  63  83 CALM      29.91S
SLAYTON        CLEAR     69  61  75 W9        29.92S
$$
MNZ065>067-074>077-082>085-091>093-230700-
   South Central Minnesota

CITY           SKY/WX    TMP DP  RH WIND       PRES   REMARKS
MANKATO        CLEAR     70  66  87 CALM      29.85F
NEW ULM        CLEAR     70  66  88 CALM      29.85S
ST JAMES       CLEAR     70  70 100 CALM      29.87F
FAIRMONT       CLEAR     69  67  93 W3        29.88F
GLENCOE        PTCLDY    67  66  96 N6        29.85S
FARIBAULT      CLEAR     66  64  94 CALM      29.85F
OWATONNA       CLEAR     70  66  88 CALM      29.86F
WASECA         CLEAR     64  63  94 CALM      29.87F
ALBERT LEA     CLEAR     70  68  94 CALM      29.87F
$$
MNZ078>079-086>088-094>096-230700-
   Southeast Minnesota

CITY           SKY/WX    TMP DP  RH WIND       PRES   REMARKS
ROCHESTER      CLEAR     68  66  93 W6        29.87F
6HR MIN TEMP:  68; 6HR MAX TEMP:  81;

RED WING       CLEAR     66  63  88 N3        29.82F
STANTON        CLEAR     65  63  91 CALM      29.83F
DODGE CENTER   CLEAR     66  64  94 SW3       29.87F
WINONA         FOG       70  68  94 CALM      29.84S VSB 1/2
AUSTIN         CLEAR     72  66  83 CALM      29.87F
PRESTON        CLEAR     68  66  93 N5        29.87F
$$
ABBREVIATIONS USED IN REMARKS
   TC - TEMPERATURES IN CELSIUS
  WCI - WIND CHILL INDEX
   HX - HEAT INDEX
  VSB - VISIBILITY
$$




USA.gov is the U.S. government's official web portal to all federal, state and local government web resources and services.